This demonstration page uses our WeatherBlox Daily Observations layout. Learn more.

Left ArrowRight Arrow

34.16533, -84.80231

Hourly Observations for July 10, 2016

Temp ( °F °C ) Dew Point ( °F °C ) Humidity (%) Winds ( mph kmh ) Pressure ( in mb ) Visibility ( mi km ) Precip ( " mm )
12:53 am 00:53 Clear 72 22.2 69 20.6 91 91 Calm 29.99 1016 10 16 0.00 0.00
1:53 am 01:53 Clear 71 21.7 69 20.6 94 94 Calm 29.98 1015 10 16 0.00 0.00
2:53 am 02:53 Clear 71 21.7 68 20 90 90 Calm 29.98 1015 10 16 0.00 0.00
3:53 am 03:53 Clear 70 21.1 68 20 93 93 Calm 29.98 1015 10 16 0.00 0.00
4:53 am 04:53 Clear 69 20.6 68 20 96 96 Calm 30.00 1016 10 16 0.00 0.00
5:53 am 05:53 Clear 69 20.6 67 19.4 93 93 Calm 30.01 1016 10 16 0.00 0.00
6:53 am 06:53 Sunny 69 20.6 67 19.4 93 93 Calm 30.02 1017 10 16 0.00 0.00
7:53 am 07:53 Sunny 71 21.7 68 20 90 90 Calm 30.04 1017 10 16 0.00 0.00
8:53 am 08:53 Mostly Cloudy 72 22.2 69 20.6 91 91 Calm 30.05 1018 10 16 0.00 0.00
9:53 am 09:53 Sunny 74 23.3 70 21.1 88 88 Calm 30.06 1018 10 16 0.00 0.00
10:53 am 10:53 Sunny 77 25 69 20.6 77 77 Calm 30.05 1018 10 16 0.00 0.00
11:53 am 11:53 Sunny 79 26.1 70 21.1 74 74 VRB 3 6 30.05 1018 10 16 0.00 0.00
12:53 pm 12:53 Mostly Sunny 84 28.9 71 21.7 65 65 NE 3 6 30.05 1018 10 16 0.00 0.00
1:53 pm 13:53 Mostly Sunny 86 30 70 21.1 59 59 Calm 30.04 1017 10 16 0.00 0.00
2:53 pm 14:53 Mostly Sunny 87 30.6 69 20.6 55 55 NE 5 7 30.01 1016 10 16 0.00 0.00
3:53 pm 15:53 Sunny 89 31.7 68 20 50 50 VRB 5 7 29.97 1015 10 16 0.00 0.00
4:53 pm 16:53 Sunny 87 30.6 69 20.6 55 55 VRB 3 6 29.96 1015 10 16 0.00 0.00
5:53 pm 17:53 Sunny 88 31.1 67 19.4 50 50 VRB 3 6 29.97 1015 10 16 0.00 0.00
6:53 pm 18:53 Sunny 85 29.4 68 20 57 57 Calm 29.97 1015 10 16 0.00 0.00
7:53 pm 19:53 Sunny 82 27.8 72 22.2 72 72 Calm 29.96 1015 10 16 0.00 0.00
8:53 pm 20:53 Sunny 77 25 72 22.2 85 85 Calm 29.98 1015 10 16 0.00 0.00
9:53 pm 21:53 Clear 75 23.9 71 21.7 88 88 Calm 30.00 1016 10 16 0.00 0.00
10:53 pm 22:53 Cloudy 78 25.6 69 20.6 74 74 undefined N/A 30.03 1017 10 16 0.00 0.00
11:06 pm 23:06 Cloudy with Heavy Rain 74 23.3 71 21.7 91 91 VRB 5 7 30.06 1018 2 3 0.19 4.83
11:11 pm 23:11 Cloudy with Heavy Rain 73 22.8 71 21.7 94 94 VRB 3 6 30.06 1018 1 1 0.33 8.38
11:16 pm 23:16 Cloudy with Light Rain 73 22.8 71 21.7 94 94 Calm 30.06 1018 1 2 0.34 8.64
11:19 pm 23:19 Mostly Cloudy with Light Rain 73 22.8 71 21.7 94 94 Calm 30.03 1017 3 5 0.34 8.64
11:53 pm 23:53 Mostly Clear 73 22.8 71 21.7 94 94 Calm 30.04 1017 10 16 0.34 8.64

Powered by AerisWeather